Zurück zum Katalog

OT-FOREST-17 TELPERION

AktivWissenschaftSSO
NORAD 68988·PAYLOAD·🇮🇹 Italy

Gestartet May 3, 2026 von Vandenberg Space Force Base

Loading…

Nächste Überflüge (nächste 24 Stunden)

TLE

AktuellSource: Space-Track

Epoche: Sep 14, 2026, 23:27 UTC

1 68988U 26100J   26257.97761510  .00001076  00000-0  10917-3 0  9991
2 68988  97.7214 153.6200 0004990 187.8004 172.3139 14.92908863 20084

Verfolge OT-FOREST-17 TELPERION in Echtzeit mit AllMySat

Download on the App Store